Regional Weather Roundup
Issued by NWS State College, PA

Home | Current Version | Previous Version | Graphics & Text | Print | Product List | Glossary On
Versions: 1 2 3 4 5 6 7 8 9 10 11 12 13 14 15 16 17 18 19 20 21 22 23 24 25 26 27 28 29 30 31 32 33 34 35 36 37 38 39 40 41 42 43 44 45 46 47 48 49 50
000
ASUS41 KCTP 251103
RWRCTP

REGIONAL WEATHER ROUNDUP
NATIONAL WEATHER SERVICE STATE COLLEGE PA
700 AM EDT SUN JUN 25 2017

Note: "fair" indicates few or no clouds below 12,000 feet with no
significant weather and/or obstructions to visibility.

* = STATION THAT DOES NOT REPORT PRECIPITATION /E.G. RAIN...SNOW...ETC/
    THUNDER OR FOG.

PAZ002>004-007>009-013>016-020>023-029>032-251200-
WESTERN PENNSYLVANIA

CITY           SKY/WX    TMP DP  RH WIND       PRES   REMARKS
ERIE           MOSUNNY   59  53  80 S6        30.00R
MEADVILLE      SUNNY     57  56  96 SW3       30.03R
FRANKLIN*      MOSUNNY   54  52  94 W6        30.04S
NEW CASTLE     FAIR      56  56 100 CALM      30.06R
BEAVER COUNTY  NOT AVBL
BUTLER*        MOSUNNY   55  54  94 CALM      30.05R
PITTSBURGH INT PTSUNNY   60  57  89 W3        30.05R
PITTSBURGH     MOSUNNY   62  54  74 W7        30.05R
INDIANA*       PTSUNNY   59  59 100 CALM      30.08R
LATROBE        MOSUNNY   61  59  94 SW6       30.06R
WASHINGTON CO* PTSUNNY   59  55  88 SW5       30.09R
$$

PAZ004>006-010>012-017>019-024>028-033>037-041-042-045-046-049>053-251200-
CENTRAL PENNSYLVANIA

CITY           SKY/WX    TMP DP  RH WIND       PRES   REMARKS
BRADFORD       SUNNY     52  51  97 CALM      30.03R
DUBOIS         MOSUNNY   55  53  93 SW3       30.03R
CLEARFIELD     MOSUNNY   56  56 100 CALM      30.04R FOG
JOHNSTOWN      MOSUNNY   59  55  87 SW6       30.07R
ALTOONA        MOSUNNY   60  58  92 W5        30.05R
STATE COLLEGE  MOSUNNY   59  55  88 CALM      30.03R
WILLIAMSPORT   SUNNY     61  57  87 N3        29.99R
SELINSGROVE    SUNNY     63  60  90 CALM      30.01R
FT INDIANTOWN  SUNNY     61  61 100 CALM      30.00R
CAPITAL CITY   MOSUNNY   67  60  78 CALM      30.00R
HARRISBURG     MOSUNNY   69  61  75 CALM      29.99R
YORK           SUNNY     67  63  87 CALM      30.01R
$$

PAZ038>040-043-044-047-048-054-055-060>062-067>071-251200-
EASTERN PENNSYLVANIA

CITY           SKY/WX    TMP DP  RH WIND       PRES   REMARKS
SCRANTON       MOSUNNY   59  57  93 CALM      30.00R
MOUNT POCONO   NOT AVBL
ALLENTOWN      SUNNY     65  59  81 CALM      30.00R
QUAKERTOWN*    MOSUNNY   63  61  94 CALM      30.01R
READING        MOSUNNY   64  64 100 CALM      29.99R
LANCASTER      MOSUNNY   66  63  90 W6        30.00R
COATESVILLE    PTSUNNY   64  63  94 CALM      30.02R
POTTSTOWN      PTSUNNY   65  63  93 CALM      30.00S
BLUE BELL      PTSUNNY   63  63 100 CALM      30.00S
DOYLESTOWN     PTSUNNY   64  60  87 CALM      29.99R
WILLOW GROVE   NOT AVBL
NORTH PHILA    MOSUNNY   72  62  71 CALM      30.00R
PHILADELPHIA   PTSUNNY   72  60  66 CALM      29.99R
$$




USA.gov is the U.S. government's official web portal to all federal, state and local government web resources and services.